Location: Bowman Observatory
(41.0326°N, 73.6210°W)
Time: 02:52:32
(UTC-04:00)

Cosmos 2298 Rocket - Visible Passes

Search period start: 20 April 2018 00:00
Search period end: 30 April 2018 00:00
Orbit: 775 x 784 km, 74.0° (Epoch: 19 April)

Date Brightness Start Highest point End Pass type
(mag) Time Alt. Az. Time Alt. Az. Time Alt. Az.
20 Apr 4.8 03:56:37 10° N 04:01:50 53° ENE 04:07:00 10° SE visible
21 Apr 5.6 03:23:23 10° N 03:28:14 34° ENE 03:33:02 10° SE visible
21 Apr 4.8 05:05:51 10° NW 05:10:26 30° W 05:14:58 10° SSW visible
22 Apr 6.2 02:50:22 10° N 02:54:33 23° ENE 02:58:41 10° ESE visible
22 Apr 4.2 04:32:01 10° NNW 04:37:06 47° WSW 04:42:10 10° S visible
23 Apr 6.7 02:17:41 10° NNE 02:20:46 15° NE 02:23:49 10° E visible
23 Apr 3.9 03:58:23 10° NNW 04:03:43 76° WSW 04:08:33 12° SSE visible
24 Apr 4.2 03:24:56 10° NNW 03:30:15 69° ENE 03:33:29 24° SSE visible
24 Apr 5.7 05:09:12 10° WNW 05:11:53 14° W 05:13:53 12° WSW visible
25 Apr 5.0 02:51:37 10° N 02:56:42 44° ENE 02:59:10 27° ESE visible
25 Apr 5.1 04:34:37 10° NW 04:38:41 23° W 04:39:35 22° WSW visible
26 Apr 5.7 02:18:28 10° N 02:23:04 29° ENE 02:25:12 22° E visible
26 Apr 4.6 04:00:35 10° NW 04:05:25 36° W 04:05:38 36° WSW visible
27 Apr 6.3 01:45:33 10° N 01:49:21 19° ENE 01:51:28 16° E visible
27 Apr 4.1 03:26:51 10° NNW 03:31:55 58° W 03:31:55 58° W visible
28 Apr 6.7 01:13:09 10° NNE 01:15:31 13° NE 01:17:52 10° ENE visible
28 Apr 4.0 02:53:17 10° NNW 02:58:20 80° NNW 02:58:20 80° NNW visible
29 Apr 4.5 02:19:54 10° NNW 02:24:52 56° NE 02:24:52 56° NE visible
29 Apr 5.8 04:03:32 10° NW 04:05:20 15° WNW 04:05:20 15° WNW visible
